Location: Krakow
(50.0830°N, 19.9170°E)
Time: 16:13:40
(UTC+01:00)

Altair - Visible Passes

Search period start: 29 January 2023 00:00
Search period end: 08 February 2023 00:00
Orbit: 1501 x 1683 km, 47.2° (Epoch: 28 January)

Date Brightness Start Highest point End Pass type
(mag) Time Alt. Az. Time Alt. Az. Time Alt. Az.
29 Jan 9.4 02:46:29 15° SSE 02:46:29 15° SSE 02:47:48 10° SSE visible
29 Jan 9.2 04:44:33 13° SW 04:44:33 13° SW 04:46:15 10° SSW visible
29 Jan 9.0 17:54:17 10° SSE 17:58:08 13° ESE 18:00:11 12° ESE visible
29 Jan 8.2 19:51:47 10° SSW 19:58:15 36° S 19:58:15 36° S visible
29 Jan 9.4 21:54:44 10° WSW 21:56:18 16° WSW 21:56:18 16° WSW visible
30 Jan 9.3 04:21:20 11° SSW 04:21:20 11° SSW 04:21:53 10° SSW visible
30 Jan 9.1 17:30:32 10° SE 17:33:09 11° ESE 17:35:46 10° ESE visible
30 Jan 8.1 19:26:51 10° SSW 19:34:55 38° SSE 19:34:55 38° SSE visible
30 Jan 8.9 21:29:35 10° WSW 21:32:59 25° WSW 21:32:59 25° WSW visible
31 Jan 8.1 19:01:56 10° SSW 19:10:26 36° SE 19:11:33 35° SE visible
31 Jan 8.5 21:04:27 10° WSW 21:09:36 36° SW 21:09:36 36° SW visible
01 Feb 8.2 18:37:03 10° SSW 18:45:20 34° SE 18:48:07 29° ESE visible
01 Feb 8.0 20:39:19 10° WSW 20:46:10 49° SW 20:46:10 49° SW visible
01 Feb 9.6 22:43:36 10° W 22:44:13 12° W 22:44:13 12° W visible
02 Feb 8.3 18:12:13 10° SSW 18:20:16 31° SE 18:24:39 22° E visible
02 Feb 7.7 20:14:12 10° WSW 20:22:41 60° S 20:22:41 60° S visible
02 Feb 9.2 22:18:25 10° W 22:20:44 20° W 22:20:44 20° W visible
03 Feb 8.4 17:47:24 10° S 17:55:12 29° SE 18:01:07 16° E visible
03 Feb 7.5 19:49:07 10° SW 19:58:38 62° SSE 19:59:10 61° SE visible
03 Feb 8.8 21:53:13 10° W 21:57:12 29° W 21:57:12 29° W visible
04 Feb 8.5 17:22:37 10° S 17:30:09 27° SE 17:37:32 11° E visible
04 Feb 7.6 19:24:01 10° SW 19:33:28 59° SSE 19:35:34 51° ESE visible
04 Feb 8.4 21:28:02 10° W 21:33:37 40° WSW 21:33:37 40° WSW visible
05 Feb 7.7 18:58:57 10° SW 19:08:18 57° SSE 19:11:57 39° E visible
05 Feb 8.0 21:02:51 10° W 21:09:59 54° WSW 21:09:59 54° WSW visible
05 Feb 9.6 23:07:25 10° W 23:08:01 12° W 23:08:01 12° W visible
06 Feb 7.8 18:33:54 10° SW 18:43:09 54° SSE 18:48:18 29° E visible
06 Feb 7.6 20:37:41 10° W 20:46:19 70° SW 20:46:19 70° SW visible
06 Feb 9.3 22:42:13 10° W 22:44:21 19° W 22:44:21 19° W visible
07 Feb 7.9 18:08:52 10° SW 18:18:01 52° SSE 18:24:36 22° E visible
07 Feb 7.4 20:12:31 10° WSW 20:22:15 76° S 20:22:37 75° SSE visible
07 Feb 9.0 22:17:02 10° W 22:20:39 26° W 22:20:39 26° W visible
